Time,TemperatureF,DewpointF,PressureIn,WindDirection,WindDirectionDegrees,WindSpeedMPH,WindSpeedGustMPH,Humidity,HourlyPrecipIn,Conditions,Clouds,dailyrainin,SoftwareType,DateUTC
2013-06-13 00:00:00,80.7,76.1,29.76,SSW,194,0.0,9.0,86,0.00,,,0.00,Wunderground v.1.15,2013-06-13 04:00:00,
2013-06-13 00:01:00,80.7,76.1,29.76,SSW,194,0.0,9.0,86,0.00,,,0.00,Wunderground v.1.15,2013-06-13 04:01:00,
2013-06-13 00:02:00,80.7,76.1,29.76,SSW,194,0.0,9.0,86,0.00,,,0.00,Wunderground v.1.15,2013-06-13 04:02:00,
2013-06-13 00:03:00,80.7,76.1,29.76,SSW,194,0.0,9.0,86,0.00,,,0.00,Wunderground v.1.15,2013-06-13 04:03:00,
2013-06-13 00:04:00,80.7,76.1,29.76,SSW,194,0.0,9.0,86,0.00,,,0.00,Wunderground v.1.15,2013-06-13 04:04:00,
2013-06-13 00:08:00,80.7,76.1,29.76,SSW,194,0.0,9.0,86,0.00,,,0.00,Wunderground v.1.15,2013-06-13 04:08:00,
2013-06-13 00:13:00,80.5,75.9,29.76,SSW,194,0.0,9.0,86,0.00,,,0.00,Wunderground v.1.15,2013-06-13 04:13:00,
2013-06-13 00:19:00,80.5,75.9,29.76,SSW,194,0.0,9.0,86,0.00,,,0.00,Wunderground v.1.15,2013-06-13 04:19:00,
2013-06-13 00:25:00,80.3,76.1,29.76,SSW,194,0.0,9.0,87,0.00,,,0.00,Wunderground v.1.15,2013-06-13 04:25:00,
2013-06-13 00:31:00,80.1,75.9,29.76,SSW,194,0.0,9.0,87,0.00,,,0.00,Wunderground v.1.15,2013-06-13 04:31:00,
2013-06-13 00:37:00,80.1,75.9,29.76,SSW,194,0.0,9.0,87,0.00,,,0.00,Wunderground v.1.15,2013-06-13 04:37:00,
2013-06-13 00:43:00,79.9,75.7,29.76,SSW,194,0.0,9.0,87,0.00,,,0.00,Wunderground v.1.15,2013-06-13 04:43:00,
2013-06-13 00:49:00,79.9,76.0,29.76,SSW,194,0.0,9.0,88,0.00,,,0.00,Wunderground v.1.15,2013-06-13 04:49:00,
2013-06-13 00:55:00,79.8,75.9,29.76,SSW,194,0.0,9.0,88,0.00,,,0.00,Wunderground v.1.15,2013-06-13 04:55:00,
2013-06-13 01:01:00,79.6,75.7,29.75,SSW,194,0.0,9.0,88,0.00,,,0.00,Wunderground v.1.15,2013-06-13 05:01:00,
2013-06-13 01:06:00,79.6,75.7,29.75,SSW,194,0.0,9.0,88,0.00,,,0.00,Wunderground v.1.15,2013-06-13 05:06:00,
2013-06-13 01:12:00,79.6,75.7,29.75,SSW,209,1.0,1.0,88,0.00,,,0.00,Wunderground v.1.15,2013-06-13 05:12:00,
2013-06-13 01:17:00,79.6,75.7,29.74,SSW,209,1.0,9.0,88,0.00,,,0.00,Wunderground v.1.15,2013-06-13 05:17:00,
2013-06-13 01:22:00,79.6,75.7,29.74,SW,225,1.0,1.0,88,0.00,,,0.00,Wunderground v.1.15,2013-06-13 05:22:00,
2013-06-13 01:27:00,79.6,75.7,29.74,SW,229,1.0,9.0,88,0.00,,,0.00,Wunderground v.1.15,2013-06-13 05:27:00,
2013-06-13 01:32:00,79.6,75.7,29.73,SW,229,1.0,1.0,88,0.00,,,0.00,Wunderground v.1.15,2013-06-13 05:32:00,
2013-06-13 01:38:00,79.6,75.7,29.73,SW,229,0.0,9.0,88,0.00,,,0.00,Wunderground v.1.15,2013-06-13 05:38:00,
2013-06-13 01:43:00,79.8,75.9,29.73,SW,230,1.0,9.0,88,0.00,,,0.00,Wunderground v.1.15,2013-06-13 05:43:00,
2013-06-13 01:49:00,79.8,75.9,29.73,SW,232,1.0,9.0,88,0.00,,,0.00,Wunderground v.1.15,2013-06-13 05:49:00,
2013-06-13 01:55:00,79.8,75.9,29.73,SW,235,1.0,9.0,88,0.00,,,0.00,Wunderground v.1.15,2013-06-13 05:55:00,
2013-06-13 02:01:00,79.8,76.3,29.73,WSW,253,1.0,9.0,89,0.00,,,0.00,Wunderground v.1.15,2013-06-13 06:01:00,
2013-06-13 02:08:00,79.6,76.1,29.73,WSW,253,1.0,9.0,89,0.00,,,0.00,Wunderground v.1.15,2013-06-13 06:08:00,
2013-06-13 02:13:00,79.6,76.1,29.73,WSW,253,0.0,9.0,89,0.00,,,0.00,Wunderground v.1.15,2013-06-13 06:13:00,
2013-06-13 02:19:00,79.6,76.4,29.73,WSW,253,0.0,9.0,90,0.00,,,0.00,Wunderground v.1.15,2013-06-13 06:19:00,
2013-06-13 02:25:00,79.4,76.2,29.73,WSW,253,0.0,9.0,90,0.00,,,0.00,Wunderground v.1.15,2013-06-13 06:25:00,
2013-06-13 02:31:00,79.4,76.5,29.72,WSW,253,0.0,9.0,91,0.00,,,0.00,Wunderground v.1.15,2013-06-13 06:31:00,
2013-06-13 02:37:00,79.4,76.5,29.72,WSW,253,1.0,9.0,91,0.00,,,0.00,Wunderground v.1.15,2013-06-13 06:37:00,
2013-06-13 02:43:00,79.4,76.9,29.72,WSW,253,1.0,9.0,92,0.00,,,0.00,Wunderground v.1.15,2013-06-13 06:43:00,
2013-06-13 02:49:00,79.4,76.9,29.72,WSW,252,0.0,9.0,92,0.00,,,0.00,Wunderground v.1.15,2013-06-13 06:49:00,
2013-06-13 02:55:00,79.2,76.7,29.72,WSW,252,0.0,9.0,92,0.00,,,0.00,Wunderground v.1.15,2013-06-13 06:55:00,
2013-06-13 03:01:00,79.2,76.7,29.72,WSW,252,0.0,9.0,92,0.00,,,0.00,Wunderground v.1.15,2013-06-13 07:01:00,
2013-06-13 03:08:00,79.2,76.7,29.72,WSW,252,0.0,9.0,92,0.00,,,0.00,Wunderground v.1.15,2013-06-13 07:08:00,
2013-06-13 03:13:00,79.0,76.8,29.72,WSW,252,0.0,9.0,93,0.00,,,0.00,Wunderground v.1.15,2013-06-13 07:13:00,
2013-06-13 03:19:00,79.0,76.8,29.72,WSW,252,0.0,9.0,93,0.00,,,0.00,Wunderground v.1.15,2013-06-13 07:19:00,
2013-06-13 03:25:00,79.0,76.8,29.72,WSW,252,0.0,9.0,93,0.00,,,0.00,Wunderground v.1.15,2013-06-13 07:25:00,
2013-06-13 03:31:00,78.8,76.6,29.72,WSW,252,0.0,9.0,93,0.00,,,0.00,Wunderground v.1.15,2013-06-13 07:31:00,
2013-06-13 03:37:00,78.8,76.6,29.72,WSW,252,0.0,9.0,93,0.00,,,0.00,Wunderground v.1.15,2013-06-13 07:37:00,
2013-06-13 03:43:00,78.8,76.6,29.72,WSW,252,0.0,9.0,93,0.00,,,0.00,Wunderground v.1.15,2013-06-13 07:43:00,
2013-06-13 03:49:00,78.6,76.7,29.73,WSW,252,0.0,9.0,94,0.00,,,0.00,Wunderground v.1.15,2013-06-13 07:49:00,
2013-06-13 03:55:00,78.6,76.7,29.73,WSW,252,0.0,9.0,94,0.00,,,0.00,Wunderground v.1.15,2013-06-13 07:55:00,
2013-06-13 04:01:00,78.5,76.6,29.73,WSW,252,0.0,9.0,94,0.00,,,0.00,Wunderground v.1.15,2013-06-13 08:01:00,
2013-06-13 04:06:00,78.5,76.6,29.73,WSW,252,0.0,9.0,94,0.00,,,0.00,Wunderground v.1.15,2013-06-13 08:06:00,
2013-06-13 04:11:00,78.3,76.4,29.73,WSW,252,0.0,9.0,94,0.00,,,0.00,Wunderground v.1.15,2013-06-13 08:11:00,
2013-06-13 04:17:00,78.3,76.4,29.73,WSW,252,0.0,9.0,94,0.00,,,0.00,Wunderground v.1.15,2013-06-13 08:17:00,
2013-06-13 04:23:00,78.3,76.7,29.73,WSW,252,0.0,9.0,95,0.00,,,0.00,Wunderground v.1.15,2013-06-13 08:23:00,
2013-06-13 04:29:00,78.3,76.7,29.73,WSW,252,0.0,9.0,95,0.00,,,0.00,Wunderground v.1.15,2013-06-13 08:29:00,
2013-06-13 04:35:00,78.3,76.7,29.73,WSW,252,0.0,9.0,95,0.00,,,0.00,Wunderground v.1.15,2013-06-13 08:35:00,
2013-06-13 04:41:00,78.1,76.6,29.73,WSW,252,0.0,9.0,95,0.00,,,0.00,Wunderground v.1.15,2013-06-13 08:41:00,
2013-06-13 04:47:00,78.1,76.6,29.72,WSW,252,0.0,9.0,95,0.00,,,0.00,Wunderground v.1.15,2013-06-13 08:47:00,
2013-06-13 04:53:00,78.1,76.6,29.72,WSW,252,0.0,9.0,95,0.00,,,0.00,Wunderground v.1.15,2013-06-13 08:53:00,
2013-06-13 04:59:00,77.9,76.4,29.72,WSW,252,0.0,9.0,95,0.00,,,0.00,Wunderground v.1.15,2013-06-13 08:59:00,
2013-06-13 05:05:00,77.9,76.4,29.72,WSW,252,0.0,9.0,95,0.00,,,0.00,Wunderground v.1.15,2013-06-13 09:05:00,
2013-06-13 05:10:00,77.9,76.4,29.72,WSW,252,0.0,9.0,95,0.00,,,0.00,Wunderground v.1.15,2013-06-13 09:10:00,
2013-06-13 05:16:00,77.9,76.4,29.72,WSW,252,0.0,9.0,95,0.00,,,0.00,Wunderground v.1.15,2013-06-13 09:16:00,
2013-06-13 05:22:00,77.9,76.4,29.72,WSW,252,0.0,9.0,95,0.00,,,0.00,Wunderground v.1.15,2013-06-13 09:22:00,
2013-06-13 05:28:00,77.9,76.4,29.72,WSW,252,0.0,9.0,95,0.00,,,0.00,Wunderground v.1.15,2013-06-13 09:28:00,
2013-06-13 05:34:00,77.9,76.4,29.72,WSW,252,0.0,9.0,95,0.00,,,0.00,Wunderground v.1.15,2013-06-13 09:34:00,
2013-06-13 05:40:00,77.9,76.4,29.72,WSW,252,0.0,9.0,95,0.00,,,0.00,Wunderground v.1.15,2013-06-13 09:40:00,
2013-06-13 05:46:00,77.9,76.4,29.72,WSW,252,0.0,9.0,95,0.00,,,0.00,Wunderground v.1.15,2013-06-13 09:46:00,
2013-06-13 05:51:00,77.9,76.4,29.72,WSW,252,0.0,9.0,95,0.00,,,0.00,Wunderground v.1.15,2013-06-13 09:51:00,
2013-06-13 05:57:00,77.9,76.4,29.72,WSW,252,0.0,9.0,95,0.00,,,0.00,Wunderground v.1.15,2013-06-13 09:57:00,
2013-06-13 06:03:00,77.9,76.0,29.72,WSW,252,0.0,9.0,94,0.00,,,0.00,Wunderground v.1.15,2013-06-13 10:03:00,
2013-06-13 06:09:00,77.9,76.0,29.72,WSW,252,0.0,9.0,94,0.00,,,0.00,Wunderground v.1.15,2013-06-13 10:09:00,
2013-06-13 06:14:00,77.9,76.0,29.72,WSW,252,0.0,9.0,94,0.00,,,0.00,Wunderground v.1.15,2013-06-13 10:14:00,
2013-06-13 06:20:00,77.9,76.0,29.72,WSW,252,1.0,9.0,94,0.00,,,0.00,Wunderground v.1.15,2013-06-13 10:20:00,
2013-06-13 06:26:00,77.9,76.0,29.72,WSW,252,1.0,9.0,94,0.00,,,0.00,Wunderground v.1.15,2013-06-13 10:26:00,
2013-06-13 06:31:00,77.9,76.0,29.72,WSW,252,0.0,9.0,94,0.00,,,0.00,Wunderground v.1.15,2013-06-13 10:31:00,
2013-06-13 06:37:00,77.9,76.0,29.72,WSW,252,0.0,9.0,94,0.00,,,0.00,Wunderground v.1.15,2013-06-13 10:37:00,
2013-06-13 06:43:00,78.1,76.2,29.72,WSW,252,0.0,9.0,94,0.00,,,0.00,Wunderground v.1.15,2013-06-13 10:43:00,
2013-06-13 06:49:00,78.1,76.2,29.72,WSW,254,0.0,9.0,94,0.00,,,0.00,Wunderground v.1.15,2013-06-13 10:49:00,
2013-06-13 06:55:00,78.1,76.2,29.72,WSW,254,1.0,9.0,94,0.00,,,0.00,Wunderground v.1.15,2013-06-13 10:55:00,
2013-06-13 07:01:00,78.3,76.4,29.72,WSW,255,1.0,9.0,94,0.00,,,0.00,Wunderground v.1.15,2013-06-13 11:01:00,
2013-06-13 07:08:00,78.5,76.6,29.72,WSW,255,1.0,9.0,94,0.00,,,0.00,Wunderground v.1.15,2013-06-13 11:08:00,
2013-06-13 07:13:00,78.5,76.3,29.72,WSW,255,0.0,9.0,93,0.00,,,0.00,Wunderground v.1.15,2013-06-13 11:13:00,
2013-06-13 07:19:00,78.6,76.4,29.72,West,273,1.0,9.0,93,0.00,,,0.00,Wunderground v.1.15,2013-06-13 11:19:00,
2013-06-13 07:25:00,78.8,76.3,29.72,WSW,242,1.0,9.0,92,0.00,,,0.00,Wunderground v.1.15,2013-06-13 11:25:00,
2013-06-13 07:31:00,79.0,76.5,29.72,WSW,243,0.0,9.0,92,0.00,,,0.00,Wunderground v.1.15,2013-06-13 11:31:00,
2013-06-13 07:37:00,79.2,76.7,29.72,WSW,243,0.0,9.0,92,0.00,,,0.00,Wunderground v.1.15,2013-06-13 11:37:00,
2013-06-13 07:42:00,79.4,76.5,29.72,WSW,248,0.0,9.0,91,0.00,,,0.00,Wunderground v.1.15,2013-06-13 11:42:00,
2013-06-13 07:48:00,79.6,76.7,29.72,WSW,248,0.0,9.0,91,0.00,,,0.00,Wunderground v.1.15,2013-06-13 11:48:00,
2013-06-13 07:54:00,79.8,76.9,29.72,WSW,248,0.0,9.0,91,0.00,,,0.00,Wunderground v.1.15,2013-06-13 11:54:00,
2013-06-13 08:00:00,80.1,76.9,29.72,WSW,249,0.0,9.0,90,0.00,,,0.00,Wunderground v.1.15,2013-06-13 12:00:00,
2013-06-13 08:06:00,80.5,76.6,29.72,WSW,251,1.0,9.0,88,0.00,,,0.00,Wunderground v.1.15,2013-06-13 12:06:00,
2013-06-13 08:12:00,80.7,76.5,29.72,WSW,250,1.0,9.0,87,0.00,,,0.00,Wunderground v.1.15,2013-06-13 12:12:00,
2013-06-13 08:18:00,81.1,76.5,29.72,West,261,1.0,9.0,86,0.00,,,0.00,Wunderground v.1.15,2013-06-13 12:18:00,
2013-06-13 08:24:00,81.4,76.8,29.72,WNW,283,1.0,9.0,86,0.00,,,0.00,Wunderground v.1.15,2013-06-13 12:24:00,
2013-06-13 08:30:00,81.8,76.5,29.71,WSW,244,1.0,9.0,84,0.00,,,0.00,Wunderground v.1.15,2013-06-13 12:30:00,
2013-06-13 08:36:00,82.2,76.2,29.71,WNW,292,0.0,9.0,82,0.00,,,0.00,Wunderground v.1.15,2013-06-13 12:36:00,
2013-06-13 08:42:00,82.6,76.5,29.71,NW,305,0.0,9.0,82,0.00,,,0.00,Wunderground v.1.15,2013-06-13 12:42:00,
2013-06-13 08:48:00,83.0,76.6,29.71,NW,313,1.0,9.0,81,0.00,,,0.00,Wunderground v.1.15,2013-06-13 12:48:00,
2013-06-13 08:53:00,83.4,76.6,29.71,NW,313,1.0,9.0,80,0.00,,,0.00,Wunderground v.1.15,2013-06-13 12:53:00,
2013-06-13 08:58:00,83.8,76.2,29.71,NNW,335,1.0,9.0,78,0.00,,,0.00,Wunderground v.1.15,2013-06-13 12:58:00,
2013-06-13 09:03:00,84.1,76.5,29.70,NW,325,1.0,9.0,78,0.00,,,0.00,Wunderground v.1.15,2013-06-13 13:03:00,
2013-06-13 09:08:00,84.5,76.9,29.70,West,277,1.0,9.0,78,0.00,,,0.00,Wunderground v.1.15,2013-06-13 13:08:00,
2013-06-13 09:14:00,84.7,76.3,29.70,NNW,338,1.0,9.0,76,0.00,,,0.00,Wunderground v.1.15,2013-06-13 13:14:00,
2013-06-13 09:19:00,85.1,76.3,29.70,West,276,1.0,9.0,75,0.00,,,0.00,Wunderground v.1.15,2013-06-13 13:19:00,
2013-06-13 09:25:00,85.5,76.7,29.70,West,269,0.0,9.0,75,0.00,,,0.00,Wunderground v.1.15,2013-06-13 13:25:00,
2013-06-13 09:31:00,85.9,77.1,29.70,WNW,298,1.0,9.0,75,0.00,,,0.00,Wunderground v.1.15,2013-06-13 13:31:00,
2013-06-13 09:37:00,86.3,77.0,29.70,WNW,290,1.0,9.0,74,0.00,,,0.00,Wunderground v.1.15,2013-06-13 13:37:00,
2013-06-13 09:43:00,86.7,76.6,29.70,NW,306,1.0,9.0,72,0.00,,,0.00,Wunderground v.1.15,2013-06-13 13:43:00,
2013-06-13 09:49:00,87.0,76.9,29.70,West,273,1.0,9.0,72,0.00,,,0.00,Wunderground v.1.15,2013-06-13 13:49:00,
2013-06-13 09:55:00,87.2,77.5,29.70,NW,314,1.0,9.0,73,0.00,,,0.00,Wunderground v.1.15,2013-06-13 13:55:00,
2013-06-13 10:00:00,87.6,77.0,29.70,WSW,250,1.0,9.0,71,0.00,,,0.00,Wunderground v.1.15,2013-06-13 14:00:00,
2013-06-13 10:05:00,87.6,76.6,29.70,NNW,331,1.0,9.0,70,0.00,,,0.00,Wunderground v.1.15,2013-06-13 14:05:00,
2013-06-13 10:10:00,87.8,76.8,29.70,SW,217,1.0,9.0,70,0.00,,,0.00,Wunderground v.1.15,2013-06-13 14:10:00,
2013-06-13 10:16:00,88.0,76.5,29.70,West,267,2.0,9.0,69,0.00,,,0.00,Wunderground v.1.15,2013-06-13 14:16:00,
2013-06-13 10:22:00,88.2,76.3,29.70,North,355,3.0,9.0,68,0.00,,,0.00,Wunderground v.1.15,2013-06-13 14:22:00,
2013-06-13 10:28:00,88.4,76.5,29.70,NW,318,2.0,9.0,68,0.00,,,0.00,Wunderground v.1.15,2013-06-13 14:28:00,
2013-06-13 10:34:00,88.8,75.5,29.70,West,264,2.0,9.0,65,0.00,,,0.00,Wunderground v.1.15,2013-06-13 14:34:00,
2013-06-13 10:40:00,89.3,76.0,29.70,WNW,303,2.0,9.0,65,0.00,,,0.00,Wunderground v.1.15,2013-06-13 14:40:00,
2013-06-13 10:46:00,89.5,76.2,29.69,WNW,300,2.0,9.0,65,0.00,,,0.00,Wunderground v.1.15,2013-06-13 14:46:00,
2013-06-13 10:52:00,89.9,76.6,29.69,WNW,286,2.0,9.0,65,0.00,,,0.00,Wunderground v.1.15,2013-06-13 14:52:00,
2013-06-13 10:58:00,90.1,76.7,29.69,WSW,253,3.0,9.0,65,0.00,,,0.00,Wunderground v.1.15,2013-06-13 14:58:00,
2013-06-13 11:04:00,90.3,76.0,29.69,West,267,3.0,9.0,63,0.00,,,0.00,Wunderground v.1.15,2013-06-13 15:04:00,
2013-06-13 11:10:00,90.5,76.2,29.69,WSW,257,1.0,9.0,63,0.00,,,0.00,Wunderground v.1.15,2013-06-13 15:10:00,
2013-06-13 11:16:00,90.7,75.9,29.69,NW,311,3.0,10.0,62,0.00,,,0.00,Wunderground v.1.15,2013-06-13 15:16:00,
2013-06-13 11:21:00,90.7,75.4,29.69,West,270,4.0,12.0,61,0.00,,,0.00,Wunderground v.1.15,2013-06-13 15:21:00,
2013-06-13 11:27:00,91.0,76.2,29.69,NW,315,4.0,11.0,62,0.00,,,0.00,Wunderground v.1.15,2013-06-13 15:27:00,
2013-06-13 11:32:00,91.2,76.4,29.69,WSW,242,2.0,2.0,62,0.00,,,0.00,Wunderground v.1.15,2013-06-13 15:32:00,
2013-06-13 11:37:00,91.4,76.1,29.69,West,264,2.0,9.0,61,0.00,,,0.00,Wunderground v.1.15,2013-06-13 15:37:00,
2013-06-13 11:42:00,91.6,75.2,29.69,NNW,330,2.0,9.0,59,0.00,,,0.00,Wunderground v.1.15,2013-06-13 15:42:00,
2013-06-13 11:47:00,91.6,75.7,29.68,West,276,2.0,10.0,60,0.00,,,0.00,Wunderground v.1.15,2013-06-13 15:47:00,
2013-06-13 11:53:00,91.6,75.7,29.68,NW,313,3.0,9.0,60,0.00,,,0.00,Wunderground v.1.15,2013-06-13 15:53:00,
2013-06-13 11:59:00,91.8,75.9,29.68,WNW,298,4.0,9.0,60,0.00,,,0.00,Wunderground v.1.15,2013-06-13 15:59:00,
2013-06-13 12:05:00,91.6,75.2,29.67,WNW,300,4.0,12.0,59,0.00,,,0.00,Wunderground v.1.15,2013-06-13 16:05:00,
2013-06-13 12:10:00,91.8,75.4,29.67,WNW,288,4.0,12.0,59,0.00,,,0.00,Wunderground v.1.15,2013-06-13 16:10:00,
2013-06-13 12:16:00,92.1,75.2,29.67,West,270,4.0,10.0,58,0.00,,,0.00,Wunderground v.1.15,2013-06-13 16:16:00,
2013-06-13 12:22:00,92.3,75.4,29.67,SSW,211,3.0,3.0,58,0.00,,,0.00,Wunderground v.1.15,2013-06-13 16:22:00,
2013-06-13 12:28:00,92.5,76.6,29.67,West,281,3.0,10.0,60,0.00,,,0.00,Wunderground v.1.15,2013-06-13 16:28:00,
2013-06-13 12:34:00,92.7,75.2,29.66,West,277,3.0,9.0,57,0.00,,,0.00,Wunderground v.1.15,2013-06-13 16:34:00,
2013-06-13 12:40:00,92.7,75.2,29.66,WNW,300,4.0,10.0,57,0.00,,,0.00,Wunderground v.1.15,2013-06-13 16:40:00,
2013-06-13 12:46:00,92.7,74.7,29.66,NNW,333,4.0,10.0,56,0.00,,,0.00,Wunderground v.1.15,2013-06-13 16:46:00,
2013-06-13 12:52:00,92.7,74.7,29.66,North,350,5.0,5.0,56,0.00,,,0.00,Wunderground v.1.15,2013-06-13 16:52:00,
2013-06-13 12:58:00,92.7,75.8,29.66,WNW,284,4.0,10.0,58,0.00,,,0.00,Wunderground v.1.15,2013-06-13 16:58:00,
2013-06-13 13:04:00,92.9,74.4,29.65,NW,317,4.0,9.0,55,0.00,,,0.00,Wunderground v.1.15,2013-06-13 17:04:00,
2013-06-13 13:10:00,93.2,75.2,29.65,WSW,245,5.0,10.0,56,0.00,,,0.00,Wunderground v.1.15,2013-06-13 17:10:00,
2013-06-13 13:16:00,93.2,75.7,29.64,WSW,257,4.0,9.0,57,0.00,,,0.00,Wunderground v.1.15,2013-06-13 17:16:00,
2013-06-13 13:22:00,93.4,74.8,29.64,NW,305,3.0,3.0,55,0.00,,,0.00,Wunderground v.1.15,2013-06-13 17:22:00,
2013-06-13 13:28:00,93.6,73.9,29.64,West,281,3.0,9.0,53,0.00,,,0.00,Wunderground v.1.15,2013-06-13 17:28:00,
2013-06-13 13:34:00,93.8,74.1,29.64,WNW,289,4.0,9.0,53,0.00,,,0.00,Wunderground v.1.15,2013-06-13 17:34:00,
2013-06-13 13:40:00,93.8,73.5,29.64,NNW,346,5.0,10.0,52,0.00,,,0.00,Wunderground v.1.15,2013-06-13 17:40:00,
2013-06-13 13:46:00,93.8,74.1,29.63,West,279,5.0,9.0,53,0.00,,,0.00,Wunderground v.1.15,2013-06-13 17:46:00,
2013-06-13 13:52:00,94.0,74.8,29.63,WNW,285,4.0,9.0,54,0.00,,,0.00,Wunderground v.1.15,2013-06-13 17:52:00,
2013-06-13 13:58:00,94.0,74.8,29.63,West,279,4.0,12.0,54,0.00,,,0.00,Wunderground v.1.15,2013-06-13 17:58:00,
2013-06-13 14:04:00,94.3,73.4,29.63,WSW,252,4.0,9.0,51,0.00,,,0.00,Wunderground v.1.15,2013-06-13 18:04:00,
2013-06-13 14:10:00,94.3,74.0,29.63,WNW,289,4.0,9.0,52,0.00,,,0.00,Wunderground v.1.15,2013-06-13 18:10:00,
2013-06-13 14:16:00,94.5,73.0,29.62,NW,316,5.0,12.0,50,0.00,,,0.00,Wunderground v.1.15,2013-06-13 18:16:00,
2013-06-13 14:21:00,94.5,73.0,29.62,WSW,248,4.0,12.0,50,0.00,,,0.00,Wunderground v.1.15,2013-06-13 18:21:00,
2013-06-13 14:26:00,94.5,72.4,29.62,SSW,199,4.0,9.0,49,0.00,,,0.00,Wunderground v.1.15,2013-06-13 18:26:00,
2013-06-13 14:32:00,94.3,72.8,29.61,NNW,327,5.0,5.0,50,0.00,,,0.00,Wunderground v.1.15,2013-06-13 18:32:00,
2013-06-13 14:38:00,94.0,71.9,29.61,WNW,301,6.0,10.0,49,0.00,,,0.00,Wunderground v.1.15,2013-06-13 18:38:00,
2013-06-13 14:43:00,94.0,71.9,29.61,NNW,336,6.0,9.0,49,0.00,,,0.00,Wunderground v.1.15,2013-06-13 18:43:00,
2013-06-13 14:49:00,94.3,72.2,29.61,West,262,5.0,17.0,49,0.00,,,0.00,Wunderground v.1.15,2013-06-13 18:49:00,
2013-06-13 14:54:00,94.3,72.2,29.61,WNW,284,5.0,9.0,49,0.00,,,0.00,Wunderground v.1.15,2013-06-13 18:54:00,
2013-06-13 14:59:00,94.5,72.4,29.61,WNW,290,3.0,11.0,49,0.00,,,0.00,Wunderground v.1.15,2013-06-13 18:59:00,
2013-06-13 15:04:00,94.5,72.4,29.60,NW,324,4.0,9.0,49,0.00,,,0.00,Wunderground v.1.15,2013-06-13 19:04:00,
2013-06-13 15:09:00,94.3,72.2,29.60,NNW,331,5.0,9.0,49,0.00,,,0.00,Wunderground v.1.15,2013-06-13 19:09:00,
2013-06-13 15:14:00,94.3,72.8,29.59,WSW,257,4.0,12.0,50,0.00,,,0.00,Wunderground v.1.15,2013-06-13 19:14:00,
2013-06-13 15:20:00,94.5,72.4,29.59,West,275,4.0,12.0,49,0.00,,,0.00,Wunderground v.1.15,2013-06-13 19:20:00,
2013-06-13 15:25:00,94.7,72.0,29.59,West,280,5.0,9.0,48,0.00,,,0.00,Wunderground v.1.15,2013-06-13 19:25:00,
2013-06-13 15:30:00,94.7,72.0,29.59,West,280,0.0,9.0,48,0.00,,,0.00,Wunderground v.1.15,2013-06-13 19:30:00,
2013-06-13 15:36:00,-999.9,-99.9,29.59,North,32767,-999.0,9.0,255,-99.99,,,0.00,Wunderground v.1.15,2013-06-13 19:36:00,
2013-06-13 15:42:00,-999.9,-99.9,29.59,North,32767,-999.0,9.0,255,-99.99,,,0.00,Wunderground v.1.15,2013-06-13 19:42:00,
2013-06-13 15:48:00,-999.9,-99.9,29.58,North,32767,-999.0,9.0,255,-99.99,,,0.00,Wunderground v.1.15,2013-06-13 19:48:00,
2013-06-13 15:53:00,-999.9,-99.9,29.58,North,32767,-999.0,9.0,255,-99.99,,,0.00,Wunderground v.1.15,2013-06-13 19:53:00,
2013-06-13 15:58:00,-999.9,-99.9,29.58,North,32767,-999.0,9.0,255,-99.99,,,0.00,Wunderground v.1.15,2013-06-13 19:58:00,
2013-06-13 16:04:00,-999.9,-99.9,29.58,North,32767,-999.0,9.0,255,-99.99,,,0.00,Wunderground v.1.15,2013-06-13 20:04:00,
2013-06-13 16:10:00,-999.9,-99.9,29.58,North,32767,-999.0,9.0,255,-99.99,,,0.00,Wunderground v.1.15,2013-06-13 20:10:00,
2013-06-13 16:16:00,-999.9,-99.9,29.58,North,32767,-999.0,9.0,255,-99.99,,,0.00,Wunderground v.1.15,2013-06-13 20:16:00,
2013-06-13 16:22:00,-999.9,-99.9,29.58,North,32767,-999.0,9.0,255,-99.99,,,0.00,Wunderground v.1.15,2013-06-13 20:22:00,
2013-06-13 16:28:00,95.6,75.7,29.58,WNW,302,1.0,9.0,53,0.00,,,0.00,Wunderground v.1.15,2013-06-13 20:28:00,
2013-06-13 16:34:00,94.9,73.9,29.58,West,275,3.0,9.0,51,0.00,,,0.00,Wunderground v.1.15,2013-06-13 20:34:00,
2013-06-13 16:39:00,94.7,73.2,29.58,WNW,288,4.0,11.0,50,0.00,,,0.00,Wunderground v.1.15,2013-06-13 20:39:00,
2013-06-13 16:45:00,94.5,73.6,29.58,WNW,292,5.0,9.0,51,0.00,,,0.00,Wunderground v.1.15,2013-06-13 20:45:00,
2013-06-13 16:51:00,94.3,73.4,29.58,NNW,338,5.0,12.0,51,0.00,,,0.00,Wunderground v.1.15,2013-06-13 20:51:00,
2013-06-13 16:57:00,94.0,73.7,29.58,WNW,302,5.0,15.0,52,0.00,,,0.00,Wunderground v.1.15,2013-06-13 20:57:00,
2013-06-13 17:02:00,94.0,73.7,29.58,WNW,287,5.0,5.0,52,0.00,,,0.00,Wunderground v.1.15,2013-06-13 21:02:00,
2013-06-13 17:08:00,94.0,73.7,29.58,WNW,290,3.0,9.0,52,0.00,,,0.00,Wunderground v.1.15,2013-06-13 21:08:00,
2013-06-13 17:13:00,94.0,73.7,29.58,West,278,4.0,5.0,52,0.00,,,0.00,Wunderground v.1.15,2013-06-13 21:13:00,
2013-06-13 17:18:00,94.3,75.1,29.57,NNW,336,5.0,9.0,54,0.00,,,0.00,Wunderground v.1.15,2013-06-13 21:18:00,
2013-06-13 17:23:00,94.0,75.4,29.57,NNW,340,4.0,9.0,55,0.00,,,0.00,Wunderground v.1.15,2013-06-13 21:23:00,
2013-06-13 17:28:00,94.0,74.3,29.57,WNW,300,4.0,9.0,53,0.00,,,0.00,Wunderground v.1.15,2013-06-13 21:28:00,
2013-06-13 17:34:00,93.6,73.3,29.56,West,281,4.0,9.0,52,0.00,,,0.00,Wunderground v.1.15,2013-06-13 21:34:00,
2013-06-13 17:40:00,93.6,73.3,29.56,WNW,287,4.0,11.0,52,0.00,,,0.00,Wunderground v.1.15,2013-06-13 21:40:00,
2013-06-13 17:46:00,93.6,73.9,29.55,West,277,4.0,9.0,53,0.00,,,0.00,Wunderground v.1.15,2013-06-13 21:46:00,
2013-06-13 17:52:00,93.4,72.0,29.55,NNW,330,3.0,3.0,50,0.00,,,0.00,Wunderground v.1.15,2013-06-13 21:52:00,
2013-06-13 17:58:00,93.4,72.6,29.55,WSW,249,3.0,9.0,51,0.00,,,0.00,Wunderground v.1.15,2013-06-13 21:58:00,
2013-06-13 18:04:00,93.2,73.0,29.55,WNW,289,3.0,9.0,52,0.00,,,0.00,Wunderground v.1.15,2013-06-13 22:04:00,
2013-06-13 18:10:00,92.9,73.2,29.55,NW,319,3.0,10.0,53,0.00,,,0.00,Wunderground v.1.15,2013-06-13 22:10:00,
2013-06-13 18:16:00,92.7,71.3,29.55,WNW,294,3.0,9.0,50,0.00,,,0.00,Wunderground v.1.15,2013-06-13 22:16:00,
2013-06-13 18:22:00,92.7,71.3,29.55,West,274,3.0,3.0,50,0.00,,,0.00,Wunderground v.1.15,2013-06-13 22:22:00,
2013-06-13 18:28:00,92.5,71.2,29.55,NW,313,3.0,9.0,50,0.00,,,0.00,Wunderground v.1.15,2013-06-13 22:28:00,
2013-06-13 18:33:00,92.5,71.7,29.55,West,268,2.0,12.0,51,0.00,,,0.00,Wunderground v.1.15,2013-06-13 22:33:00,
2013-06-13 18:39:00,92.3,72.1,29.55,NW,323,3.0,12.0,52,0.00,,,0.00,Wunderground v.1.15,2013-06-13 22:39:00,
2013-06-13 18:45:00,92.1,71.9,29.55,NW,308,3.0,9.0,52,0.00,,,0.00,Wunderground v.1.15,2013-06-13 22:45:00,
2013-06-13 18:51:00,92.1,73.1,29.55,West,264,3.0,9.0,54,0.00,,,0.00,Wunderground v.1.15,2013-06-13 22:51:00,
2013-06-13 18:57:00,91.8,72.2,29.55,WNW,294,3.0,9.0,53,0.00,,,0.00,Wunderground v.1.15,2013-06-13 22:57:00,
2013-06-13 19:03:00,91.6,73.1,29.56,NW,317,2.0,9.0,55,0.00,,,0.00,Wunderground v.1.15,2013-06-13 23:03:00,
2013-06-13 19:08:00,91.4,72.4,29.56,WNW,285,2.0,10.0,54,0.00,,,0.00,Wunderground v.1.15,2013-06-13 23:08:00,
2013-06-13 19:14:00,91.2,72.2,29.56,WNW,302,2.0,9.0,54,0.00,,,0.00,Wunderground v.1.15,2013-06-13 23:14:00,
2013-06-13 19:19:00,91.0,72.6,29.56,NNW,334,2.0,9.0,55,0.00,,,0.00,Wunderground v.1.15,2013-06-13 23:19:00,
2013-06-13 19:24:00,90.7,72.3,29.56,West,262,3.0,9.0,55,0.00,,,0.00,Wunderground v.1.15,2013-06-13 23:24:00,
2013-06-13 19:29:00,90.5,72.1,29.56,West,271,2.0,9.0,55,0.00,,,0.00,Wunderground v.1.15,2013-06-13 23:29:00,
2013-06-13 19:35:00,90.3,71.9,29.56,West,273,3.0,9.0,55,0.00,,,0.00,Wunderground v.1.15,2013-06-13 23:35:00,
2013-06-13 19:41:00,89.9,72.1,29.56,WSW,246,3.0,9.0,56,0.00,,,0.00,Wunderground v.1.15,2013-06-13 23:41:00,
2013-06-13 19:47:00,89.5,72.3,29.56,WNW,282,3.0,9.0,57,0.00,,,0.00,Wunderground v.1.15,2013-06-13 23:47:00,
2013-06-13 19:53:00,89.3,72.6,29.56,West,274,3.0,10.0,58,0.00,,,0.00,Wunderground v.1.15,2013-06-13 23:53:00,
2013-06-13 19:59:00,88.8,72.1,29.56,NNW,330,2.0,10.0,58,0.00,,,0.00,Wunderground v.1.15,2013-06-13 23:59:00,
2013-06-13 20:04:00,88.6,71.9,29.57,West,279,2.0,9.0,58,0.00,,,0.00,Wunderground v.1.15,2013-06-14 00:04:00,
2013-06-13 20:09:00,88.4,71.7,29.57,West,278,2.0,9.0,58,0.00,,,0.00,Wunderground v.1.15,2013-06-14 00:09:00,
2013-06-13 20:14:00,88.2,72.1,29.57,West,276,1.0,9.0,59,0.00,,,0.00,Wunderground v.1.15,2013-06-14 00:14:00,
2013-06-13 20:19:00,88.0,72.4,29.57,WSW,254,1.0,9.0,60,0.00,,,0.00,Wunderground v.1.15,2013-06-14 00:19:00,
2013-06-13 20:24:00,87.8,72.2,29.57,West,277,1.0,9.0,60,0.00,,,0.00,Wunderground v.1.15,2013-06-14 00:24:00,
2013-06-13 20:29:00,87.6,72.0,29.57,WNW,287,1.0,9.0,60,0.00,,,0.00,Wunderground v.1.15,2013-06-14 00:29:00,
2013-06-13 20:35:00,87.4,71.8,29.56,West,278,1.0,9.0,60,0.00,,,0.00,Wunderground v.1.15,2013-06-14 00:35:00,
2013-06-13 20:40:00,87.2,72.1,29.56,West,278,1.0,9.0,61,0.00,,,0.00,Wunderground v.1.15,2013-06-14 00:40:00,
2013-06-13 20:45:00,87.0,71.9,29.57,West,269,1.0,9.0,61,0.00,,,0.00,Wunderground v.1.15,2013-06-14 00:45:00,
2013-06-13 20:50:00,86.5,71.9,29.57,WSW,254,1.0,9.0,62,0.00,,,0.00,Wunderground v.1.15,2013-06-14 00:50:00,
2013-06-13 20:55:00,86.3,72.2,29.57,WSW,254,0.0,9.0,63,0.00,,,0.00,Wunderground v.1.15,2013-06-14 00:55:00,
2013-06-13 21:00:00,86.1,73.0,29.56,WSW,254,1.0,9.0,65,0.00,,,0.00,Wunderground v.1.15,2013-06-14 01:00:00,
2013-06-13 21:05:00,85.9,74.1,29.56,SW,236,1.0,9.0,68,0.00,,,0.00,Wunderground v.1.15,2013-06-14 01:05:00,
2013-06-13 21:11:00,85.7,75.2,29.56,WSW,250,2.0,9.0,71,0.00,,,0.00,Wunderground v.1.15,2013-06-14 01:11:00,
2013-06-13 21:16:00,85.3,75.2,29.53,West,277,3.0,9.0,72,0.00,,,0.00,Wunderground v.1.15,2013-06-14 01:16:00,
2013-06-13 21:21:00,85.1,75.5,29.53,West,259,2.0,9.0,73,0.00,,,0.00,Wunderground v.1.15,2013-06-14 01:21:00,
2013-06-13 21:26:00,84.9,75.3,29.53,WSW,246,1.0,9.0,73,0.00,,,0.00,Wunderground v.1.15,2013-06-14 01:26:00,
2013-06-13 21:32:00,84.7,75.5,29.54,WSW,242,1.0,1.0,74,0.00,,,0.00,Wunderground v.1.15,2013-06-14 01:32:00,
2013-06-13 21:37:00,84.7,76.3,29.54,NNW,337,2.0,9.0,76,0.00,,,0.00,Wunderground v.1.15,2013-06-14 01:37:00,
2013-06-13 21:42:00,84.5,76.5,29.54,SW,230,2.0,9.0,77,0.00,,,0.00,Wunderground v.1.15,2013-06-14 01:42:00,
2013-06-13 21:47:00,84.5,76.5,29.55,West,267,2.0,9.0,77,0.00,,,0.00,Wunderground v.1.15,2013-06-14 01:47:00,
2013-06-13 21:52:00,84.3,76.3,29.55,West,275,2.0,9.0,77,0.00,,,0.00,Wunderground v.1.15,2013-06-14 01:52:00,
2013-06-13 21:57:00,84.1,76.1,29.55,West,269,2.0,9.0,77,0.00,,,0.00,Wunderground v.1.15,2013-06-14 01:57:00,
2013-06-13 22:02:00,84.1,76.1,29.56,WSW,238,2.0,9.0,77,0.00,,,0.00,Wunderground v.1.15,2013-06-14 02:02:00,
2013-06-13 22:08:00,84.0,76.0,29.56,WNW,282,2.0,9.0,77,0.00,,,0.00,Wunderground v.1.15,2013-06-14 02:08:00,
2013-06-13 22:13:00,84.0,76.4,29.56,WSW,251,2.0,9.0,78,0.00,,,0.00,Wunderground v.1.15,2013-06-14 02:13:00,
2013-06-13 22:19:00,83.8,76.2,29.55,WSW,253,2.0,9.0,78,0.00,,,0.00,Wunderground v.1.15,2013-06-14 02:19:00,
2013-06-13 22:25:00,83.6,76.4,29.55,WSW,251,1.0,9.0,79,0.00,,,0.00,Wunderground v.1.15,2013-06-14 02:25:00,
2013-06-13 22:31:00,83.6,76.4,29.55,SW,223,0.0,9.0,79,0.00,,,0.00,Wunderground v.1.15,2013-06-14 02:31:00,
2013-06-13 22:37:00,83.4,76.2,29.55,WNW,290,1.0,9.0,79,0.00,,,0.00,Wunderground v.1.15,2013-06-14 02:37:00,
2013-06-13 22:44:00,83.2,76.0,29.55,WNW,289,1.0,9.0,79,0.00,,,0.00,Wunderground v.1.15,2013-06-14 02:44:00,
2013-06-13 22:49:00,83.2,76.0,29.55,WSW,258,0.0,9.0,79,0.00,,,0.00,Wunderground v.1.15,2013-06-14 02:49:00,
2013-06-13 22:55:00,83.0,75.8,29.55,West,277,1.0,9.0,79,0.00,,,0.00,Wunderground v.1.15,2013-06-14 02:55:00,
2013-06-13 23:00:00,83.0,75.8,29.56,West,278,1.0,9.0,79,0.00,,,0.00,Wunderground v.1.15,2013-06-14 03:00:00,
2013-06-13 23:07:00,83.0,75.8,29.56,WNW,284,1.0,9.0,79,0.00,,,0.00,Wunderground v.1.15,2013-06-14 03:07:00,
2013-06-13 23:12:00,83.0,75.4,29.56,West,266,1.0,9.0,78,0.00,,,0.00,Wunderground v.1.15,2013-06-14 03:12:00,
2013-06-13 23:17:00,82.8,75.2,29.56,West,274,1.0,9.0,78,0.00,,,0.00,Wunderground v.1.15,2013-06-14 03:17:00,
2013-06-13 23:23:00,82.8,75.2,29.56,West,265,1.0,9.0,78,0.00,,,0.00,Wunderground v.1.15,2013-06-14 03:23:00,
2013-06-13 23:28:00,82.8,75.2,29.56,West,281,2.0,9.0,78,0.00,,,0.00,Wunderground v.1.15,2013-06-14 03:28:00,
2013-06-13 23:34:00,82.8,74.8,29.55,West,279,3.0,9.0,77,0.00,,,0.00,Wunderground v.1.15,2013-06-14 03:34:00,
2013-06-13 23:39:00,82.8,75.2,29.55,West,273,2.0,9.0,78,0.00,,,0.00,Wunderground v.1.15,2013-06-14 03:39:00,
2013-06-13 23:44:00,82.8,75.2,29.55,NW,323,2.0,9.0,78,0.00,,,0.00,Wunderground v.1.15,2013-06-14 03:44:00,
2013-06-13 23:50:00,82.8,75.2,29.56,WNW,296,1.0,9.0,78,0.00,,,0.00,Wunderground v.1.15,2013-06-14 03:50:00,
2013-06-13 23:56:00,82.6,75.0,29.56,West,280,1.0,9.0,78,0.00,,,0.00,Wunderground v.1.15,2013-06-14 03:56:00,